Погода в Щучье Озере

Россия / Пермский край     56°28′16″N   56°38′29″E
темп.,
°C
ветер,
м/с
пор.,
м/с
влажн.,
%
обл.,
%
осадки,
мм/ч
давл.,
гПа
погр.,
м
16 мая, вс
вс1623:00+19юз3970100 0.0 1019154
02:00+17ююз367293 0.0 1020115
05:00+16ююз377086 0.0 1020119
08:00+20ююз38555 0.0 1020252
11:00+26юз46375 0.0 1020691
14:00+29юз58295 0.0 10202755
17:00+29юз58283 0.0 10193217
20:00+24ююз39444 0.0 1018304
17 мая, пн
пн1723:00+19ююз39575 0.0 1018150
02:00+17ю38635 0.0 1018131
05:00+16ююз38670 0.0 1018152
08:00+20ююз375521 0.0 1019256
11:00+25юз473999 0.0 1018800
14:00+28зюз611345 0.0 10181925
17:00+28зюз511374 0.0 10172362
20:00+24зюз3952100 0.0 1016363
18 мая, вт
вт1823:00+18юз38713 0.0 1017168
02:00+15зюз22855 0.5 101817
05:00+14зсз228454 0.5 101815
08:00+18ссз24715 0.0 1019347
11:00+22ссз36505 0.0 10191402
14:00+23с56414 0.0 10191561
17:00+21ссв56455 0.0 10201395
20:00+18св375825 0.0 1021631
19 мая, ср
ср1923:00+13всв39793 0.0 1023333
02:00+11в310792 0.0 1024397
05:00+9в310867 0.0 1025364
08:00+13вюв476423 0.0 1025588
11:00+18вюв454352 0.0 1024918
14:00+22в3433100 0.0 10231309
17:00+22вюв343284 0.0 10221290
20:00+18вюв24505 0.0 102282
20 мая, чт
чт2023:00+13вюв375883 0.0 1022114
02:00+11юв266298 0.0 1022107
05:00+10ю267112 0.0 1023105
08:00+16ююз395331 0.0 1023372
11:00+22юз34385 0.0 1022976
14:00+24ююз45320 0.0 10211747
17:00+24юз45320 0.0 10201783
20:00+20юз24530 0.0 1020100